Weather Roundup
Issued by NWS Corpus Christi, TX

Home | Current Version | Previous Version | Text Only | Print | Product List | Glossary On
Versions: 1 2 3 4 5 6 7 8 9 10 11 12 13 14 15 16 17 18 19 20 21 22 23 24 25 26 27 28 29 30 31 32 33 34 35 36 37 38 39 40 41 42 43 44 45 46 47 48 49 50
000
ASUS44 KCRP 270010
HRRCRP

SOUTH TEXAS REGIONAL WEATHER ROUNDUP
NATIONAL WEATHER SERVICE CORPUS CHRISTI TX
600 PM CST FRI DEC 26 2014


TXZ229>244-270100-
...CORPUS CHRISTI AREA OBSERVATIONS...

CITY           SKY/WX    TMP DP  RH WIND       PRES   REMARKS
CORPUS CHRISTI PTCLDY    69  63  81 S16       29.87R
NAS CORPUS CHR PTCLDY    68  66  93 S18       29.88R
ROCKPORT       CLEAR     68  65  90 SE12      29.89R
KINGSVILLE NAS CLEAR     72  66  81 SE12      29.85R
ALICE          CLEAR     73  61  65 SE8       29.84R
FALFURRIAS     CLEAR     74  60  60 SE9       29.84R
$$

...VICTORIA AREA OBSERVATIONS...

CITY           SKY/WX    TMP DP  RH WIND       PRES   REMARKS
VICTORIA       CLOUDY    70  67  90 SE13      29.90R
BEEVILLE       FAIR      70  64  82 SE9       29.87R
PLEASANTON     CLEAR     71  56  60 E3        29.86R
SAN ANTONIO    PTCLDY    65  58  78 E6        29.88R
$$

...LAREDO AREA OBSERVATIONS...

CITY           SKY/WX    TMP DP  RH WIND       PRES   REMARKS
LAREDO         CLEAR     68  54  60 S6        29.85R
DEL RIO        PTCLDY    66  46  48 E5        29.83R
MCALLEN        CLEAR     74  63  68 SE15      29.84R
HEBBRONVILLE   CLEAR     72  57  58 SE6       29.85R HAZE
$$

...OTHER TEXAS OBSERVATIONS...

CITY           SKY/WX    TMP DP  RH WIND       PRES   REMARKS
BROWNSVILLE    MOCLDY    71  65  81 S18       29.88R
HOUSTON        CLOUDY    69  63  81 SE10      29.95S
COL. STATION   CLOUDY    66  64  93 SE9       29.92R
AUSTIN         PTCLDY    65  58  78 S7        29.88R
WACO           CLEAR     62  60  93 SE7       29.89R
FORT WORTH     MOCLDY    63  59  87 SE9       29.89R
WICHITA FALLS  CLEAR     57  47  69 NW10      29.89R
LUBBOCK        LGT RAIN  51  29  42 W13       29.91R
EL PASO        LGT RAIN  38  35  89 SE12      29.95R WCI  30
$$

...MARINE OBSERVATIONS...

STATION/POSITION TIME  SKY/WX   TEMP    WIND        PRES    VSBY  WAVE   SWELL
                                AIR SEA DIR/SP/G                  HT/PER HT/PER
                 (UTC)          (F)     (DEG/KT/KT) (MB)    (MI)  (FT/S) (FT/S)
PORT ARANSAS     0000            66 62  140/ 14/ 15 1012.4R
BUOY 90 E PORT A 0000            73 72  150/ 19/ 23 1013.3S         8/ 7
BUOY 45 SE BAFFI 0000            72 72  160/ 14/ 16 1011.8S         6/ 8   5/ 8
BUOY 200 E PT IS 0000            74 74  140/ 16/ 19 1015.1S         4/ 6   2/15
BUOY 15 E GALVES 0000            64 61  120/ 10/ 10 1014.6R         5/ 7   3/ 7
$$


USA.gov is the U.S. government's official web portal to all federal, state and local government web resources and services.